Overview Statistics Trail Chart Weather Telemetry Raw packets
 

This is the latest recevied weather packets stored in our database for station/object N2VUZ-1. If no packets are shown the sender has not sent any weather packets the latest 10 day(s).

<< 11 12 13 14 15 16 17 >>
Time Temp. Humidity Pressure Rain* Wind** Luminosity Snow
1788217461 24.44° C 84% 1017.8 hPa 0 mm - - -
1788217161 24.44° C 84% 1017.7 hPa 0 mm - - -
1788216861 23.89° C 84% 1017.7 hPa 0 mm - - -
1788216561 24.44° C 84% 1017.6 hPa 0 mm - - -
1788216261 24.44° C 83% 1017.9 hPa 0 mm - - -
1788215961 24.44° C 83% 1017.9 hPa 0 mm - - -
1788215661 24.44° C 83% 1018 hPa 0 mm - - -
1788215361 24.44° C 83% 1017.9 hPa 0 mm - - -
1788215068 24.44° C 83% 1017.6 hPa 0 mm - - -
1788214761 24.44° C 83% 1018.1 hPa 0 mm - - -
1788214461 24.44° C 83% 1018.3 hPa 0 mm - - -
1788214161 24.44° C 83% 1018.5 hPa 0 mm - - -
1788213861 24.44° C 83% 1018.2 hPa 0 mm - - -
1788213561 24.44° C 83% 1018.1 hPa 0 mm - - -
1788213261 24.44° C 83% 1018.3 hPa 0 mm - - -
1788212961 24.44° C 83% 1018.8 hPa 0 mm - - -
1788212661 25° C 83% 1018.5 hPa 0 mm - - -
1788212361 25° C 82% 1018.4 hPa 0 mm - - -
1788212061 25.56° C 80% 1018.3 hPa 0 mm - - -
1788211761 26.11° C 79% 1017.9 hPa 0 mm - - -
1788211461 27.22° C 80% 1017.7 hPa 0 mm - - -
1788211161 27.78° C 79% 1017.9 hPa 0 mm - - -
1788210861 27.78° C 79% 1017.8 hPa 0 mm - - -
1788210561 28.33° C 78% 1017.6 hPa 0 mm - - -
1788210261 28.33° C 78% 1017.7 hPa 0 mm - - -

* Rain latest hour (hover to see other rain measurements)
** Current wind speed in m/s (hover to see current wind gust speed)